Flag for Germany Weather past 2 weeks in Hockenheim, Baden-Württemberg, Germany

Now
64 °F

Overcast.


Feels Like: 64 °F
Forecast: 45 / 63 °F
Wind: 3 mph from North

Location: Baden Wurttemberg - Neuostheim

Current Time: Oct 20, 2014 at 10:56:47 AM

Latest Report: Oct 20, 2014 at 10:20 AM


Visibility: N/A

Pressure: 30.09 "Hg

Humidity: 83%

Dew point: 59 °F

Location of HockenheimLocation

Historic Weather in Hockenheim — Graph

°F

Hockenheim temperature yesterday

Maximum temperature yesterday: 75 °F (at 4:20 PM)
Minimum temperature yesterday: 57 °F (at 7:50 AM)
Average temperature yesterday: 67 °F

Past Weeks' High & Low Weather Summary

 TemperatureHumidityPressure
High75 °F (Oct 19, 4:20 PM)100% (Oct 9, 10:20 PM)30.18 "Hg (Oct 9, 10:20 PM)
Low46 °F (Oct 18, 7:20 AM)57% (Oct 14, 3:20 PM)29.68 "Hg (Oct 7, 8:50 AM)
Average62 °F82%29.89 "Hg
* Reported Oct 5 9:20 AM — Oct 20 9:50 AM, Hockenheim, Weather by CustomWeather, © 2014

Note: Actual official high and low records may vary slightly from our data, if they occured in-between our weather recording intervals... More about our weather records

Advertising

Hockenheim weather history for previous 24 hours

 ConditionsComfort  
Time TempWeatherWind HumidityBarometerVisibility
9:50 AM
Oct 20
64 °FMore clouds than sun.3 mph83%30.09 "HgN/A
9:20 AM64 °FMore clouds than sun.3 mph83%30.09 "HgN/A
8:50 AM64 °FMostly cloudy.6 mph83%30.09 "HgN/A
8:20 AM64 °FOvercast.3 mph83%30.09 "HgN/A
7:50 AM64 °FOvercast.5 mph78%30.09 "HgN/A
7:20 AM66 °FMostly cloudy.7 mph73%30.09 "HgN/A
6:50 AM66 °FOvercast.5 mph78%30.07 "HgN/A
8:20 PM
Oct 19
70 °FClear.7 mph69%30.07 "Hg10 mi
7:50 PM70 °FPassing clouds.6 mph69%30.07 "HgN/A
7:20 PM70 °FPassing clouds.5 mph69%30.07 "HgN/A
6:50 PM70 °FPassing clouds.6 mph69%30.07 "HgN/A
6:20 PM72 °FPassing clouds.7 mph65%30.07 "HgN/A
5:50 PM72 °FPassing clouds.7 mph65%30.07 "HgN/A
5:20 PM73 °FPassing clouds.7 mph61%30.07 "HgN/A
4:50 PM73 °FPassing clouds.8 mph65%30.07 "HgN/A
4:20 PM75 °FPassing clouds.8 mph61%30.07 "HgN/A
3:50 PM73 °FPassing clouds.10 mph61%30.09 "HgN/A
3:20 PM73 °FMild.9 mph61%30.09 "HgN/A
2:50 PM73 °FPassing clouds.10 mph61%30.09 "HgN/A
2:20 PM72 °FPassing clouds.9 mph65%30.09 "HgN/A
1:50 PM72 °FPassing clouds.9 mph65%30.12 "HgN/A
1:20 PM68 °FSunny.10 mph73%30.12 "Hg10 mi
12:50 PM68 °FPassing clouds.10 mph73%30.12 "HgN/A
12:20 PM66 °FPassing clouds.9 mph73%30.12 "HgN/A
11:50 AM66 °FPassing clouds.8 mph73%30.12 "HgN/A
11:20 AM64 °FPassing clouds.8 mph78%30.12 "HgN/A
10:50 AM63 °FPassing clouds.9 mph77%30.12 "HgN/A
10:20 AM61 °FPassing clouds.7 mph88%30.15 "HgN/A
Weather by CustomWeather, © 2014

See weather overviewHow to use our weather pages